Year,Month,Day,Hour,Minute,Value (Times are PST for temperature in C)
2013,04,24,00,00,5.30
2013,04,24,00,01,5.30
2013,04,24,00,02,5.30
2013,04,24,00,03,5.20
2013,04,24,00,04,5.20
2013,04,24,00,05,5.10
2013,04,24,00,06,5.10
2013,04,24,00,07,5.10
2013,04,24,00,08,5.10
2013,04,24,00,09,5.10
2013,04,24,00,10,5.10
2013,04,24,00,11,5.10
2013,04,24,00,12,5.10
2013,04,24,00,13,5.10
2013,04,24,00,14,5.10
2013,04,24,00,15,5.10
2013,04,24,00,16,5.10
2013,04,24,00,17,5.10
2013,04,24,00,18,5.10
2013,04,24,00,19,5.10
2013,04,24,00,20,5.10
2013,04,24,00,21,5.20
2013,04,24,00,22,5.20
2013,04,24,00,23,5.20
2013,04,24,00,24,5.20
2013,04,24,00,25,5.20
2013,04,24,00,26,5.30
2013,04,24,00,27,5.30
2013,04,24,00,28,5.20
2013,04,24,00,29,5.20
2013,04,24,00,30,5.10
2013,04,24,00,31,5.00
2013,04,24,00,32,4.90
2013,04,24,00,33,4.80
2013,04,24,00,34,4.70
2013,04,24,00,35,4.70
2013,04,24,00,36,4.60
2013,04,24,00,37,4.60
2013,04,24,00,38,4.50
2013,04,24,00,39,4.40
2013,04,24,00,40,4.40
2013,04,24,00,41,4.30
2013,04,24,00,42,4.30
2013,04,24,00,43,4.20
2013,04,24,00,44,4.20
2013,04,24,00,45,4.20
2013,04,24,00,46,4.20
2013,04,24,00,47,4.20
2013,04,24,00,48,4.20
2013,04,24,00,49,4.20
2013,04,24,00,50,4.20
2013,04,24,00,51,4.20
2013,04,24,00,52,4.20
2013,04,24,00,53,4.20
2013,04,24,00,54,4.20
2013,04,24,00,55,4.10
2013,04,24,00,56,4.10
2013,04,24,00,57,4.10
2013,04,24,00,58,4.10
2013,04,24,00,59,4.10
2013,04,24,01,00,4.10
2013,04,24,01,01,4.10
2013,04,24,01,02,4.10
2013,04,24,01,03,4.20
2013,04,24,01,04,4.20
2013,04,24,01,05,4.20
2013,04,24,01,06,4.20
2013,04,24,01,07,4.20
2013,04,24,01,08,4.20
2013,04,24,01,09,4.10
2013,04,24,01,10,4.10
2013,04,24,01,11,4.10
2013,04,24,01,12,4.10
2013,04,24,01,13,4.10
2013,04,24,01,14,4.10
2013,04,24,01,15,4.10
2013,04,24,01,16,4.10
2013,04,24,01,17,4.10
2013,04,24,01,18,4.10
2013,04,24,01,19,4.10
2013,04,24,01,20,4.10
2013,04,24,01,21,4.10
2013,04,24,01,22,4.10
2013,04,24,01,23,4.10
2013,04,24,01,24,4.10
2013,04,24,01,25,4.10
2013,04,24,01,26,4.10
2013,04,24,01,27,4.10
2013,04,24,01,28,4.10
2013,04,24,01,29,4.10
2013,04,24,01,30,4.10
2013,04,24,01,31,4.10
2013,04,24,01,32,4.20
2013,04,24,01,33,4.20
2013,04,24,01,34,4.20
2013,04,24,01,35,4.20
2013,04,24,01,36,4.20
2013,04,24,01,37,4.20
2013,04,24,01,38,4.20
2013,04,24,01,39,4.20
2013,04,24,01,40,4.20
2013,04,24,01,41,4.20
2013,04,24,01,42,4.20
2013,04,24,01,43,4.10
2013,04,24,01,44,4.10
2013,04,24,01,45,4.10
2013,04,24,01,46,4.10
2013,04,24,01,47,4.10
2013,04,24,01,48,4.10
2013,04,24,01,49,4.10
2013,04,24,01,50,4.10
2013,04,24,01,51,4.10
2013,04,24,01,52,4.10
2013,04,24,01,53,4.10
2013,04,24,01,54,4.10
2013,04,24,01,55,4.10
2013,04,24,01,56,4.10
2013,04,24,01,57,4.10
2013,04,24,01,58,4.10
2013,04,24,01,59,4.10
2013,04,24,02,00,4.10
2013,04,24,02,01,4.10
2013,04,24,02,02,4.10
2013,04,24,02,03,4.10
2013,04,24,02,04,4.10
2013,04,24,02,05,4.20
2013,04,24,02,06,4.20
2013,04,24,02,07,4.20
2013,04,24,02,08,4.20
2013,04,24,02,09,4.20
2013,04,24,02,10,4.20
2013,04,24,02,11,4.20
2013,04,24,02,12,4.20
2013,04,24,02,13,4.30
2013,04,24,02,14,4.30
2013,04,24,02,15,4.30
2013,04,24,02,16,4.30
2013,04,24,02,17,4.30
2013,04,24,02,18,4.30
2013,04,24,02,19,4.30
2013,04,24,02,20,4.30
2013,04,24,02,21,4.30
2013,04,24,02,22,4.30
2013,04,24,02,23,4.30
2013,04,24,02,24,4.30
2013,04,24,02,25,4.30
2013,04,24,02,26,4.40
2013,04,24,02,27,4.40
2013,04,24,02,28,4.40
2013,04,24,02,29,4.40
2013,04,24,02,30,4.50
2013,04,24,02,31,4.50
2013,04,24,02,32,4.60
2013,04,24,02,33,4.60
2013,04,24,02,34,4.60
2013,04,24,02,35,4.60
2013,04,24,02,36,4.60
2013,04,24,02,37,4.60
2013,04,24,02,38,4.70
2013,04,24,02,39,4.70
2013,04,24,02,40,4.70
2013,04,24,02,41,4.70
2013,04,24,02,42,4.80
2013,04,24,02,43,4.80
2013,04,24,02,44,4.80
2013,04,24,02,45,4.80
2013,04,24,02,46,4.80
2013,04,24,02,47,4.80
2013,04,24,02,48,4.80
2013,04,24,02,49,4.80
2013,04,24,02,50,4.80
2013,04,24,02,51,4.80
2013,04,24,02,52,4.80
2013,04,24,02,53,4.80
2013,04,24,02,54,4.80
2013,04,24,02,55,4.80
2013,04,24,02,56,4.80
2013,04,24,02,57,4.80
2013,04,24,02,58,4.80
2013,04,24,02,59,4.80
2013,04,24,03,00,4.80
2013,04,24,03,01,4.80
2013,04,24,03,02,4.80
2013,04,24,03,03,4.90
2013,04,24,03,04,4.90
2013,04,24,03,05,4.90
2013,04,24,03,06,4.90
2013,04,24,03,07,4.90
2013,04,24,03,08,4.90
2013,04,24,03,09,4.90
2013,04,24,03,10,4.90
2013,04,24,03,11,4.90
2013,04,24,03,12,4.90
2013,04,24,03,13,4.90
2013,04,24,03,14,4.90
2013,04,24,03,15,4.90
2013,04,24,03,16,4.90
2013,04,24,03,17,4.90
2013,04,24,03,18,4.90
2013,04,24,03,19,4.90
2013,04,24,03,20,4.90
2013,04,24,03,21,4.90
2013,04,24,03,22,4.90
2013,04,24,03,23,4.90
2013,04,24,03,24,4.90
2013,04,24,03,25,5.00
2013,04,24,03,26,5.10
2013,04,24,03,27,5.10
2013,04,24,03,28,5.10
2013,04,24,03,29,5.10
2013,04,24,03,30,5.10
2013,04,24,03,31,5.10
2013,04,24,03,32,5.10
2013,04,24,03,33,5.10
2013,04,24,03,34,5.10
2013,04,24,03,35,5.20
2013,04,24,03,36,5.20
2013,04,24,03,37,5.20
2013,04,24,03,38,5.10
2013,04,24,03,39,5.10
2013,04,24,03,40,5.10
2013,04,24,03,41,5.10
2013,04,24,03,42,5.10
2013,04,24,03,43,5.10
2013,04,24,03,44,5.10
2013,04,24,03,45,5.10
2013,04,24,03,46,5.10
2013,04,24,03,47,5.10
2013,04,24,03,48,5.10
2013,04,24,03,49,5.10
2013,04,24,03,50,5.00
2013,04,24,03,51,4.90
2013,04,24,03,52,4.90
2013,04,24,03,53,4.90
2013,04,24,03,54,4.90
2013,04,24,03,55,4.90
2013,04,24,03,56,4.90
2013,04,24,03,57,4.90
2013,04,24,03,58,4.90
2013,04,24,03,59,4.90
2013,04,24,04,00,4.90
2013,04,24,04,01,4.90
2013,04,24,04,02,4.90
2013,04,24,04,03,4.90
2013,04,24,04,04,4.90
2013,04,24,04,05,4.90
2013,04,24,04,06,4.90
2013,04,24,04,07,4.90
2013,04,24,04,08,4.90
2013,04,24,04,09,4.90
2013,04,24,04,10,4.90
2013,04,24,04,11,4.90
2013,04,24,04,12,4.90
2013,04,24,04,13,4.90
2013,04,24,04,14,4.90
2013,04,24,04,15,4.90
2013,04,24,04,16,4.90
2013,04,24,04,17,4.90
2013,04,24,04,18,4.90
2013,04,24,04,19,4.90
2013,04,24,04,20,4.90
2013,04,24,04,21,4.90
2013,04,24,04,22,4.90
2013,04,24,04,23,4.90
2013,04,24,04,24,4.90
2013,04,24,04,25,4.90
2013,04,24,04,26,4.90
2013,04,24,04,27,4.80
2013,04,24,04,28,4.80
2013,04,24,04,29,4.70
2013,04,24,04,30,4.70
2013,04,24,04,31,4.60
2013,04,24,04,32,4.60
2013,04,24,04,33,4.50
2013,04,24,04,34,4.50
2013,04,24,04,35,4.40
2013,04,24,04,36,4.30
2013,04,24,04,37,4.20
2013,04,24,04,38,4.20
2013,04,24,04,39,4.20
2013,04,24,04,40,4.20
2013,04,24,04,41,4.20
2013,04,24,04,42,4.20
2013,04,24,04,43,4.20
2013,04,24,04,44,4.20
2013,04,24,04,45,4.20
2013,04,24,04,46,4.20
2013,04,24,04,47,4.20
2013,04,24,04,48,4.20
2013,04,24,04,49,4.20
2013,04,24,04,50,4.30
2013,04,24,04,51,4.30
2013,04,24,04,52,4.30
2013,04,24,04,53,4.30
2013,04,24,04,54,4.30
2013,04,24,04,55,4.10
2013,04,24,04,56,3.90
2013,04,24,04,57,3.70
2013,04,24,04,58,3.50
2013,04,24,04,59,3.40
2013,04,24,05,00,3.30
2013,04,24,05,01,3.30
2013,04,24,05,02,3.30
2013,04,24,05,03,3.30
2013,04,24,05,04,3.30
2013,04,24,05,05,3.40
2013,04,24,05,06,3.40
2013,04,24,05,07,3.50
2013,04,24,05,08,3.50
2013,04,24,05,09,3.50
2013,04,24,05,10,3.60
2013,04,24,05,11,3.60
2013,04,24,05,12,3.70
2013,04,24,05,13,3.70
2013,04,24,05,14,3.80
2013,04,24,05,15,3.80
2013,04,24,05,16,3.80
2013,04,24,05,17,3.80
2013,04,24,05,18,3.80
2013,04,24,05,19,3.80
2013,04,24,05,20,3.80
2013,04,24,05,21,3.80
2013,04,24,05,22,3.80
2013,04,24,05,23,3.80
2013,04,24,05,24,3.80
2013,04,24,05,25,3.90
2013,04,24,05,26,3.90
2013,04,24,05,27,3.90
2013,04,24,05,28,3.90
2013,04,24,05,29,3.90
2013,04,24,05,30,3.90
2013,04,24,05,31,3.90
2013,04,24,05,32,3.90
2013,04,24,05,33,3.90
2013,04,24,05,34,3.80
2013,04,24,05,35,3.80
2013,04,24,05,36,3.80
2013,04,24,05,37,3.80
2013,04,24,05,38,3.80
2013,04,24,05,39,3.80
2013,04,24,05,40,3.80
2013,04,24,05,41,3.80
2013,04,24,05,42,3.80
2013,04,24,05,43,3.80
2013,04,24,05,44,3.80
2013,04,24,05,45,3.80
2013,04,24,05,46,3.80
2013,04,24,05,47,3.80
2013,04,24,05,48,3.90
2013,04,24,05,49,3.90
2013,04,24,05,50,3.90
2013,04,24,05,51,3.90
2013,04,24,05,52,3.90
2013,04,24,05,53,3.90
2013,04,24,05,54,3.80
2013,04,24,05,55,3.60
2013,04,24,05,56,3.50
2013,04,24,05,57,3.40
2013,04,24,05,58,3.30
2013,04,24,05,59,3.20
2013,04,24,06,00,3.20
2013,04,24,06,01,3.10
2013,04,24,06,02,3.00
2013,04,24,06,03,2.90
2013,04,24,06,04,2.90
2013,04,24,06,05,2.90
2013,04,24,06,06,2.90
2013,04,24,06,07,2.90
2013,04,24,06,08,2.90
2013,04,24,06,09,2.90
2013,04,24,06,10,2.90
2013,04,24,06,11,3.00
2013,04,24,06,12,3.10
2013,04,24,06,13,3.00
2013,04,24,06,14,2.90
2013,04,24,06,15,2.90
2013,04,24,06,16,2.90
2013,04,24,06,17,2.90
2013,04,24,06,18,2.90
2013,04,24,06,19,3.00
2013,04,24,06,20,3.10
2013,04,24,06,21,3.00
2013,04,24,06,22,2.90
2013,04,24,06,23,2.90
2013,04,24,06,24,2.80
2013,04,24,06,25,2.70
2013,04,24,06,26,2.60
2013,04,24,06,27,2.50
2013,04,24,06,28,2.50
2013,04,24,06,29,2.50
2013,04,24,06,30,2.40
2013,04,24,06,31,2.40
2013,04,24,06,32,2.40
2013,04,24,06,33,2.30
2013,04,24,06,34,2.30
2013,04,24,06,35,2.30
2013,04,24,06,36,2.30
2013,04,24,06,37,2.30
2013,04,24,06,38,2.40
2013,04,24,06,39,2.40
2013,04,24,06,40,2.50
2013,04,24,06,41,2.50
2013,04,24,06,42,2.50
2013,04,24,06,43,2.50
2013,04,24,06,44,2.50
2013,04,24,06,45,2.50
2013,04,24,06,46,2.50
2013,04,24,06,47,2.60
2013,04,24,06,48,2.60
2013,04,24,06,49,2.60
2013,04,24,06,50,2.60
2013,04,24,06,51,2.70
2013,04,24,06,52,2.70
2013,04,24,06,53,2.70
2013,04,24,06,54,2.80
2013,04,24,06,55,2.90
2013,04,24,06,56,2.90
2013,04,24,06,57,2.90
2013,04,24,06,58,2.90
2013,04,24,06,59,2.90
2013,04,24,07,00,3.10
2013,04,24,07,01,3.10
2013,04,24,07,02,3.10
2013,04,24,07,03,3.10
2013,04,24,07,04,3.20
2013,04,24,07,05,3.30
2013,04,24,07,06,3.30
2013,04,24,07,07,3.40
2013,04,24,07,08,3.50
2013,04,24,07,09,3.60
2013,04,24,07,10,3.60
2013,04,24,07,11,3.70
2013,04,24,07,12,3.80
2013,04,24,07,13,3.90
2013,04,24,07,14,4.00
2013,04,24,07,15,4.10
2013,04,24,07,16,4.30
2013,04,24,07,17,4.50
2013,04,24,07,18,4.60
2013,04,24,07,19,4.80
2013,04,24,07,20,5.00
2013,04,24,07,21,5.20
2013,04,24,07,22,5.30
2013,04,24,07,23,5.50
2013,04,24,07,24,5.60
2013,04,24,07,25,5.80
2013,04,24,07,26,6.00
2013,04,24,07,27,6.20
2013,04,24,07,28,6.40
2013,04,24,07,29,6.60
2013,04,24,07,30,6.80
2013,04,24,07,31,7.00
2013,04,24,07,32,7.10
2013,04,24,07,33,7.30
2013,04,24,07,34,7.40
2013,04,24,07,35,7.60
2013,04,24,07,36,7.70
2013,04,24,07,37,7.90
2013,04,24,07,38,8.00
2013,04,24,07,39,8.10
2013,04,24,07,40,8.20
2013,04,24,07,41,8.20
2013,04,24,07,42,8.30
2013,04,24,07,43,8.40
2013,04,24,07,44,8.50
2013,04,24,07,45,8.60
2013,04,24,07,46,8.60
2013,04,24,07,47,8.70
2013,04,24,07,48,8.70
2013,04,24,07,49,8.80
2013,04,24,07,50,8.80
2013,04,24,07,51,8.80
2013,04,24,07,52,8.80
2013,04,24,07,53,8.80
2013,04,24,07,54,8.90
2013,04,24,07,55,8.90
2013,04,24,07,56,9.00
2013,04,24,07,57,9.00
2013,04,24,07,58,9.00
2013,04,24,07,59,9.10
2013,04,24,08,00,9.10
2013,04,24,08,01,9.10
2013,04,24,08,02,9.20
2013,04,24,08,03,9.20
2013,04,24,08,04,9.20
2013,04,24,08,05,9.20
2013,04,24,08,06,9.20
2013,04,24,08,07,9.20
2013,04,24,08,08,9.30
2013,04,24,08,09,9.30
2013,04,24,08,10,9.30
2013,04,24,08,11,9.40
2013,04,24,08,12,9.40
2013,04,24,08,13,9.40
2013,04,24,08,14,9.40
2013,04,24,08,15,9.40
2013,04,24,08,16,9.40
2013,04,24,08,17,9.50
2013,04,24,08,18,9.50
2013,04,24,08,19,9.60
2013,04,24,08,20,9.60
2013,04,24,08,21,9.60
2013,04,24,08,22,9.70
2013,04,24,08,23,9.70
2013,04,24,08,24,9.80
2013,04,24,08,25,9.80
2013,04,24,08,26,9.90
2013,04,24,08,27,9.90
2013,04,24,08,28,10.00
2013,04,24,08,29,10.10
2013,04,24,08,30,10.10
2013,04,24,08,31,10.20
2013,04,24,08,32,10.30
2013,04,24,08,33,10.30
2013,04,24,08,34,10.40
2013,04,24,08,35,10.50
2013,04,24,08,36,10.60
2013,04,24,08,37,10.70
2013,04,24,08,38,10.80
2013,04,24,08,39,10.90
2013,04,24,08,40,10.90
2013,04,24,08,41,11.10
2013,04,24,08,42,11.10
2013,04,24,08,43,11.20
2013,04,24,08,44,11.30
2013,04,24,08,45,11.40
2013,04,24,08,46,11.50
2013,04,24,08,47,11.60
2013,04,24,08,48,11.60
2013,04,24,08,49,11.70
2013,04,24,08,50,11.70
2013,04,24,08,51,11.80
2013,04,24,08,52,11.80
2013,04,24,08,53,11.80
2013,04,24,08,54,11.90
2013,04,24,08,55,11.90
2013,04,24,08,56,11.90
2013,04,24,08,57,11.90
2013,04,24,08,58,12.00
2013,04,24,08,59,12.00
2013,04,24,09,00,12.00
2013,04,24,09,01,12.00
2013,04,24,09,02,12.00
2013,04,24,09,03,12.00
2013,04,24,09,04,12.00
2013,04,24,09,05,12.10
2013,04,24,09,06,12.10
2013,04,24,09,07,12.10
2013,04,24,09,08,12.10
2013,04,24,09,09,12.10
2013,04,24,09,10,12.10
2013,04,24,09,11,12.10
2013,04,24,09,12,12.00
2013,04,24,09,13,12.00
2013,04,24,09,14,12.00
2013,04,24,09,15,12.10
2013,04,24,09,16,12.10
2013,04,24,09,17,12.10
2013,04,24,09,18,12.10
2013,04,24,09,19,12.10
2013,04,24,09,20,12.10
2013,04,24,09,21,12.10
2013,04,24,09,22,12.10
2013,04,24,09,23,12.00
2013,04,24,09,24,12.00
2013,04,24,09,25,12.00
2013,04,24,09,26,11.90
2013,04,24,09,27,11.90
2013,04,24,09,28,11.80
2013,04,24,09,29,11.80
2013,04,24,09,30,11.80
2013,04,24,09,31,11.70
2013,04,24,09,32,11.70
2013,04,24,09,33,11.70
2013,04,24,09,34,11.70
2013,04,24,09,35,11.70
2013,04,24,09,36,11.70
2013,04,24,09,37,11.70
2013,04,24,09,38,11.70
2013,04,24,09,39,11.60
2013,04,24,09,40,11.60
2013,04,24,09,41,11.60
2013,04,24,09,42,11.60
2013,04,24,09,43,11.70
2013,04,24,09,44,11.70
2013,04,24,09,45,11.70
2013,04,24,09,46,11.60
2013,04,24,09,47,11.60
2013,04,24,09,48,11.70
2013,04,24,09,49,11.70
2013,04,24,09,50,11.80
2013,04,24,09,51,11.80
2013,04,24,09,52,11.80
2013,04,24,09,53,11.90
2013,04,24,09,54,11.90
2013,04,24,09,55,11.80
2013,04,24,09,56,11.90
2013,04,24,09,57,12.00
2013,04,24,09,58,12.00
2013,04,24,09,59,12.10
2013,04,24,10,00,12.20
2013,04,24,10,01,12.20
2013,04,24,10,02,12.20
2013,04,24,10,03,12.30
2013,04,24,10,04,12.30
2013,04,24,10,05,12.30
2013,04,24,10,06,12.30
2013,04,24,10,07,12.30
2013,04,24,10,08,12.20
2013,04,24,10,09,12.20
2013,04,24,10,10,12.10
2013,04,24,10,11,12.10
2013,04,24,10,12,12.00
2013,04,24,10,13,12.00
2013,04,24,10,14,11.90
2013,04,24,10,15,11.90
2013,04,24,10,16,11.90
2013,04,24,10,17,11.90
2013,04,24,10,18,11.90
2013,04,24,10,19,11.90
2013,04,24,10,20,11.90
2013,04,24,10,21,12.00
2013,04,24,10,22,12.00
2013,04,24,10,23,12.00
2013,04,24,10,24,12.00
2013,04,24,10,25,12.00
2013,04,24,10,26,12.00
2013,04,24,10,27,12.00
2013,04,24,10,28,12.10
2013,04,24,10,29,12.10
2013,04,24,10,30,12.10
2013,04,24,10,31,12.10
2013,04,24,10,32,12.10
2013,04,24,10,33,12.10
2013,04,24,10,34,12.10
2013,04,24,10,35,12.10
2013,04,24,10,36,12.00
2013,04,24,10,37,12.00
2013,04,24,10,38,12.00
2013,04,24,10,39,12.00
2013,04,24,10,40,12.10
2013,04,24,10,41,12.20
2013,04,24,10,42,12.20
2013,04,24,10,43,12.30
2013,04,24,10,44,12.30
2013,04,24,10,45,12.40
2013,04,24,10,46,12.50
2013,04,24,10,47,12.50
2013,04,24,10,48,12.50
2013,04,24,10,49,12.60
2013,04,24,10,50,12.60
2013,04,24,10,51,12.70
2013,04,24,10,52,12.80
2013,04,24,10,53,12.80
2013,04,24,10,54,12.90
2013,04,24,10,55,12.90
2013,04,24,10,56,13.00
2013,04,24,10,57,13.00
2013,04,24,10,58,13.00
2013,04,24,10,59,12.90
2013,04,24,11,00,12.80
2013,04,24,11,01,12.80
2013,04,24,11,02,12.80
2013,04,24,11,03,12.90
2013,04,24,11,04,12.90
2013,04,24,11,05,12.80
2013,04,24,11,06,12.90
2013,04,24,11,07,13.00
2013,04,24,11,08,13.00
2013,04,24,11,09,13.10
2013,04,24,11,10,13.20
2013,04,24,11,11,13.10
2013,04,24,11,12,13.10
2013,04,24,11,13,13.00
2013,04,24,11,14,13.10
2013,04,24,11,15,13.00
2013,04,24,11,16,13.00
2013,04,24,11,17,12.90
2013,04,24,11,18,12.90
2013,04,24,11,19,12.80
2013,04,24,11,20,12.80
2013,04,24,11,21,12.80
2013,04,24,11,22,12.80
2013,04,24,11,23,12.80
2013,04,24,11,24,12.80
2013,04,24,11,25,12.80
2013,04,24,11,26,12.80
2013,04,24,11,27,12.80
2013,04,24,11,28,12.90
2013,04,24,11,29,13.00
2013,04,24,11,30,13.10
2013,04,24,11,31,13.10
2013,04,24,11,32,13.20
2013,04,24,11,33,13.30
2013,04,24,11,34,13.30
2013,04,24,11,35,13.40
2013,04,24,11,36,13.50
2013,04,24,11,37,13.50
2013,04,24,11,38,13.60
2013,04,24,11,39,13.70
2013,04,24,11,40,13.70
2013,04,24,11,41,13.70
2013,04,24,11,42,13.70
2013,04,24,11,43,13.70
2013,04,24,11,44,13.70
2013,04,24,11,45,13.60
2013,04,24,11,46,13.50
2013,04,24,11,47,13.40
2013,04,24,11,48,13.40
2013,04,24,11,49,13.30
2013,04,24,11,50,13.20
2013,04,24,11,51,13.10
2013,04,24,11,52,13.10
2013,04,24,11,53,13.10
2013,04,24,11,54,13.10
2013,04,24,11,55,13.10
2013,04,24,11,56,13.20
2013,04,24,11,57,13.20
2013,04,24,11,58,13.30
2013,04,24,11,59,13.40
2013,04,24,12,00,13.40
2013,04,24,12,01,13.40
2013,04,24,12,02,13.40
2013,04,24,12,03,13.30
2013,04,24,12,04,13.30
2013,04,24,12,05,13.30
2013,04,24,12,06,13.30
2013,04,24,12,07,13.30
2013,04,24,12,08,13.30
2013,04,24,12,09,13.30
2013,04,24,12,10,13.40
2013,04,24,12,11,13.60
2013,04,24,12,12,13.70
2013,04,24,12,13,13.80
2013,04,24,12,14,13.90
2013,04,24,12,15,14.00
2013,04,24,12,16,14.10
2013,04,24,12,17,14.20
2013,04,24,12,18,14.30
2013,04,24,12,19,14.30
2013,04,24,12,20,14.40
2013,04,24,12,21,14.40
2013,04,24,12,22,14.40
2013,04,24,12,23,14.40
2013,04,24,12,24,14.30
2013,04,24,12,25,14.40
2013,04,24,12,26,14.40
2013,04,24,12,27,14.40
2013,04,24,12,28,14.50
2013,04,24,12,29,14.50
2013,04,24,12,30,14.60
2013,04,24,12,31,14.60
2013,04,24,12,32,14.70
2013,04,24,12,33,14.70
2013,04,24,12,34,14.80
2013,04,24,12,35,14.80
2013,04,24,12,36,14.80
2013,04,24,12,37,14.80
2013,04,24,12,38,14.80
2013,04,24,12,39,14.80
2013,04,24,12,40,14.80
2013,04,24,12,41,14.70
2013,04,24,12,42,14.70
2013,04,24,12,43,14.70
2013,04,24,12,44,14.80
2013,04,24,12,45,14.80
2013,04,24,12,46,14.80
2013,04,24,12,47,14.80
2013,04,24,12,48,14.80
2013,04,24,12,49,14.60
2013,04,24,12,50,14.60
2013,04,24,12,51,14.60
2013,04,24,12,52,14.60
2013,04,24,12,53,14.60
2013,04,24,12,54,14.60
2013,04,24,12,55,14.60
2013,04,24,12,56,14.50
2013,04,24,12,57,14.50
2013,04,24,12,58,14.50
2013,04,24,12,59,14.50
2013,04,24,13,00,14.60
2013,04,24,13,01,14.60
2013,04,24,13,02,14.70
2013,04,24,13,03,14.70
2013,04,24,13,04,14.70
2013,04,24,13,05,14.70
2013,04,24,13,06,14.70
2013,04,24,13,07,14.60
2013,04,24,13,08,14.60
2013,04,24,13,09,14.60
2013,04,24,13,10,14.50
2013,04,24,13,11,14.50
2013,04,24,13,12,14.40
2013,04,24,13,13,14.30
2013,04,24,13,14,14.30
2013,04,24,13,15,14.40
2013,04,24,13,16,14.50
2013,04,24,13,17,14.60
2013,04,24,13,18,14.70
2013,04,24,13,19,14.80
2013,04,24,13,20,14.80
2013,04,24,13,21,14.80
2013,04,24,13,22,14.80
2013,04,24,13,23,14.90
2013,04,24,13,24,15.00
2013,04,24,13,25,15.10
2013,04,24,13,26,15.20
2013,04,24,13,27,15.30
2013,04,24,13,28,15.30
2013,04,24,13,29,15.30
2013,04,24,13,30,15.30
2013,04,24,13,31,15.30
2013,04,24,13,32,15.20
2013,04,24,13,33,15.20
2013,04,24,13,34,15.20
2013,04,24,13,35,15.20
2013,04,24,13,36,15.10
2013,04,24,13,37,15.10
2013,04,24,13,38,15.00
2013,04,24,13,39,15.10
2013,04,24,13,40,15.10
2013,04,24,13,41,15.00
2013,04,24,13,42,15.10
2013,04,24,13,43,15.10
2013,04,24,13,44,15.00
2013,04,24,13,45,15.10
2013,04,24,13,46,15.10
2013,04,24,13,47,15.10
2013,04,24,13,48,15.10
2013,04,24,13,49,15.10
2013,04,24,13,50,15.00
2013,04,24,13,51,15.00
2013,04,24,13,52,14.90
2013,04,24,13,53,14.90
2013,04,24,13,54,15.00
2013,04,24,13,55,15.10
2013,04,24,13,56,15.10
2013,04,24,13,57,15.10
2013,04,24,13,58,15.10
2013,04,24,13,59,15.10
2013,04,24,14,00,15.20
2013,04,24,14,01,15.10
2013,04,24,14,02,15.10
2013,04,24,14,03,15.10
2013,04,24,14,04,15.20
2013,04,24,14,05,15.20
2013,04,24,14,06,15.30
2013,04,24,14,07,15.30
2013,04,24,14,08,15.30
2013,04,24,14,09,15.30
2013,04,24,14,10,15.30
2013,04,24,14,11,15.30
2013,04,24,14,12,15.30
2013,04,24,14,13,15.40
2013,04,24,14,14,15.50
2013,04,24,14,15,15.50
2013,04,24,14,16,15.50
2013,04,24,14,17,15.60
2013,04,24,14,18,15.60
2013,04,24,14,19,15.70
2013,04,24,14,20,15.70
2013,04,24,14,21,15.60
2013,04,24,14,22,15.50
2013,04,24,14,23,15.50
2013,04,24,14,24,15.40
2013,04,24,14,25,15.40
2013,04,24,14,26,15.40
2013,04,24,14,27,15.30
2013,04,24,14,28,15.30
2013,04,24,14,29,15.20
2013,04,24,14,30,15.10
2013,04,24,14,31,15.20
2013,04,24,14,32,15.20
2013,04,24,14,33,15.30
2013,04,24,14,34,15.30
2013,04,24,14,35,15.40
2013,04,24,14,36,15.40
2013,04,24,14,37,15.40
2013,04,24,14,38,15.30
2013,04,24,14,39,15.30
2013,04,24,14,40,15.30
2013,04,24,14,41,15.30
2013,04,24,14,42,15.40
2013,04,24,14,43,15.50
2013,04,24,14,44,15.50
2013,04,24,14,45,15.60
2013,04,24,14,46,15.60
2013,04,24,14,47,15.70
2013,04,24,14,48,15.70
2013,04,24,14,49,15.60
2013,04,24,14,50,15.70
2013,04,24,14,51,15.80
2013,04,24,14,52,15.80
2013,04,24,14,53,15.90
2013,04,24,14,54,15.90
2013,04,24,14,55,15.80
2013,04,24,14,56,15.80
2013,04,24,14,57,15.80
2013,04,24,14,58,15.80
2013,04,24,14,59,15.80
2013,04,24,15,00,15.80
2013,04,24,15,01,15.80
2013,04,24,15,02,15.80
2013,04,24,15,03,15.90
2013,04,24,15,04,15.90
2013,04,24,15,05,15.90
2013,04,24,15,06,15.90
2013,04,24,15,07,15.80
2013,04,24,15,08,15.80
2013,04,24,15,09,15.80
2013,04,24,15,10,15.80
2013,04,24,15,11,15.80
2013,04,24,15,12,15.80
2013,04,24,15,13,15.80
2013,04,24,15,14,15.80
2013,04,24,15,15,15.80
2013,04,24,15,16,15.70
2013,04,24,15,17,15.70
2013,04,24,15,18,15.70
2013,04,24,15,19,15.80
2013,04,24,15,20,15.80
2013,04,24,15,21,15.80
2013,04,24,15,22,15.80
2013,04,24,15,23,15.80
2013,04,24,15,24,15.80
2013,04,24,15,25,15.80
2013,04,24,15,26,15.80
2013,04,24,15,27,15.80
2013,04,24,15,28,15.80
2013,04,24,15,29,15.80
2013,04,24,15,30,15.80
2013,04,24,15,31,15.90
2013,04,24,15,32,15.90
2013,04,24,15,33,15.90
2013,04,24,15,34,15.90
2013,04,24,15,35,15.90
2013,04,24,15,36,15.90
2013,04,24,15,37,15.80
2013,04,24,15,38,15.80
2013,04,24,15,39,15.80
2013,04,24,15,40,15.80
2013,04,24,15,41,15.70
2013,04,24,15,42,15.70
2013,04,24,15,43,15.70
2013,04,24,15,44,15.80
2013,04,24,15,45,15.80
2013,04,24,15,46,15.80
2013,04,24,15,47,15.80
2013,04,24,15,48,15.70
2013,04,24,15,49,15.80
2013,04,24,15,50,15.80
2013,04,24,15,51,15.90
2013,04,24,15,52,15.90
2013,04,24,15,53,15.90
2013,04,24,15,54,15.80
2013,04,24,15,55,15.80
2013,04,24,15,56,15.80
2013,04,24,15,57,15.80
2013,04,24,15,58,15.80
2013,04,24,15,59,15.90
2013,04,24,16,00,16.00
2013,04,24,16,01,16.10
2013,04,24,16,02,16.10
2013,04,24,16,03,16.10
2013,04,24,16,04,16.10
2013,04,24,16,05,16.20
2013,04,24,16,06,16.20
2013,04,24,16,07,16.30
2013,04,24,16,08,16.30
2013,04,24,16,09,16.40
2013,04,24,16,10,16.40
2013,04,24,16,11,16.40
2013,04,24,16,12,16.40
2013,04,24,16,13,16.40
2013,04,24,16,14,16.40
2013,04,24,16,15,16.40
2013,04,24,16,16,16.30
2013,04,24,16,17,16.30
2013,04,24,16,18,16.30
2013,04,24,16,19,16.30
2013,04,24,16,20,16.30
2013,04,24,16,21,16.30
2013,04,24,16,22,16.30
2013,04,24,16,23,16.20
2013,04,24,16,24,16.10
2013,04,24,16,25,16.00
2013,04,24,16,26,15.90
2013,04,24,16,27,15.80
2013,04,24,16,28,15.80
2013,04,24,16,29,15.80
2013,04,24,16,30,15.80
2013,04,24,16,31,15.80
2013,04,24,16,32,15.80
2013,04,24,16,33,15.80
2013,04,24,16,34,15.80
2013,04,24,16,35,15.80
2013,04,24,16,36,15.80
2013,04,24,16,37,15.90
2013,04,24,16,38,16.00
2013,04,24,16,39,16.10
2013,04,24,16,40,16.10
2013,04,24,16,41,16.20
2013,04,24,16,42,16.20
2013,04,24,16,43,16.30
2013,04,24,16,44,16.30
2013,04,24,16,45,16.30
2013,04,24,16,46,16.20
2013,04,24,16,47,16.20
2013,04,24,16,48,16.20
2013,04,24,16,49,16.20
2013,04,24,16,50,16.20
2013,04,24,16,51,16.20
2013,04,24,16,52,16.20
2013,04,24,16,53,16.20
2013,04,24,16,54,16.20
2013,04,24,16,55,16.20
2013,04,24,16,56,16.30
2013,04,24,16,57,16.30
2013,04,24,16,58,16.40
2013,04,24,16,59,16.40
2013,04,24,17,00,16.50
2013,04,24,17,01,16.60
2013,04,24,17,02,16.70
2013,04,24,17,03,16.70
2013,04,24,17,04,16.80
2013,04,24,17,05,16.80
2013,04,24,17,06,16.90
2013,04,24,17,07,16.90
2013,04,24,17,08,17.00
2013,04,24,17,09,17.00
2013,04,24,17,10,17.00
2013,04,24,17,11,17.10
2013,04,24,17,12,17.10
2013,04,24,17,13,17.10
2013,04,24,17,14,17.10
2013,04,24,17,15,17.20
2013,04,24,17,16,17.30
2013,04,24,17,17,17.30
2013,04,24,17,18,17.30
2013,04,24,17,19,17.30
2013,04,24,17,20,17.30
2013,04,24,17,21,17.40
2013,04,24,17,22,17.40
2013,04,24,17,23,17.30
2013,04,24,17,24,17.30
2013,04,24,17,25,17.30
2013,04,24,17,26,17.30
2013,04,24,17,27,17.40
2013,04,24,17,28,17.40
2013,04,24,17,29,17.40
2013,04,24,17,30,17.40
2013,04,24,17,31,17.30
2013,04,24,17,32,17.30
2013,04,24,17,33,17.30
2013,04,24,17,34,17.30
2013,04,24,17,35,17.30
2013,04,24,17,36,17.30
2013,04,24,17,37,17.30
2013,04,24,17,38,17.30
2013,04,24,17,39,17.30
2013,04,24,17,40,17.20
2013,04,24,17,41,17.10